• In United Kingdom
  • List of Countries
  • For 7 days
  • Water Temperature
  • Satellite Maps
  • Weather Map
  • Weather Widgets
  • user-avatar
    Login

    Hourly Weather Darwin

    Today, 30 May, Tuesday

    Time Temperature Precipitation Wind Pressure Humidity
    00:00 +28°C° 0 mm 7 mps 760 mmHg 53%
    01:00 +27°C° 0 mm 7 mps 760 mmHg 55%
    02:00 +27°C° 0 mm 7 mps 760 mmHg 57%
    03:00 +26°C° 0 mm 7 mps 760 mmHg 60%
    04:00 +26°C° 0 mm 7 mps 760 mmHg 61%
    05:00 +24°C° 0 mm 7 mps 760 mmHg 61%
    06:00 +24°C° 0 mm 7 mps 760 mmHg 62%
    07:00 +26°C° 0 mm 8 mps 761 mmHg 53%
    08:00 +27°C° 0 mm 8 mps 761 mmHg 44%
    09:00 +29°C° 0 mm 9 mps 761 mmHg 31%
    10:00 +31°C° 0 mm 8 mps 760 mmHg 28%
    11:00 +33°C° 0 mm 8 mps 760 mmHg 25%
    12:00 +34°C° 0 mm 8 mps 760 mmHg 23%
    13:00 +35°C° 0 mm 7 mps 760 mmHg 22%
    14:00 +35°C° 0 mm 6 mps 759 mmHg 22%
    15:00 +36°C° 0 mm 6 mps 759 mmHg 22%
    16:00 +34°C° 0 mm 5 mps 759 mmHg 26%
    17:00 +32°C° 0 mm 4 mps 759 mmHg 29%
    18:00 +29°C° 0 mm 4 mps 759 mmHg 33%
    19:00 +28°C° 0 mm 4 mps 760 mmHg 31%
    20:00 +27°C° 0 mm 5 mps 760 mmHg 30%
    21:00 +27°C° 0 mm 6 mps 760 mmHg 29%
    22:00 +26°C° 0 mm 6 mps 760 mmHg 30%
    23:00 +26°C° 0 mm 6 mps 760 mmHg 31%

    Tomorrow, 31 May, Wednesday

    Time Temperature Precipitation Wind Pressure Humidity
    00:00 +24°C° 0 mm 7 mps 761 mmHg 32%
    01:00 +23°C° 0 mm 7 mps 760 mmHg 34%
    02:00 +23°C° 0 mm 7 mps 760 mmHg 36%
    03:00 +22°C° 0 mm 6 mps 760 mmHg 38%
    04:00 +22°C° 0 mm 7 mps 760 mmHg 38%
    05:00 +22°C° 0 mm 7 mps 760 mmHg 37%
    06:00 +22°C° 0 mm 7 mps 761 mmHg 37%
    07:00 +23°C° 0 mm 8 mps 761 mmHg 33%
    08:00 +24°C° 0 mm 8 mps 761 mmHg 30%
    09:00 +26°C° 0 mm 9 mps 761 mmHg 27%
    10:00 +28°C° 0 mm 8 mps 761 mmHg 26%
    11:00 +29°C° 0 mm 8 mps 761 mmHg 24%
    12:00 +32°C° 0 mm 8 mps 760 mmHg 23%
    13:00 +32°C° 0 mm 7 mps 760 mmHg 24%
    14:00 +33°C° 0 mm 7 mps 759 mmHg 24%
    15:00 +33°C° 0 mm 6 mps 759 mmHg 24%
    16:00 +30°C° 0 mm 6 mps 759 mmHg 27%
    17:00 +29°C° 0 mm 6 mps 759 mmHg 30%
    18:00 +28°C° 0 mm 5 mps 759 mmHg 33%
    19:00 +27°C° 0 mm 6 mps 760 mmHg 33%
    20:00 +26°C° 0 mm 6 mps 760 mmHg 33%
    21:00 +26°C° 0 mm 7 mps 761 mmHg 33%
    22:00 +26°C° 0 mm 7 mps 761 mmHg 32%
    23:00 +26°C° 0 mm 7 mps 761 mmHg 31%

    Day after tomorrow, 1 June, Thursday

    Time Temperature Precipitation Wind Pressure Humidity
    00:00 +24°C° 0 mm 7 mps 761 mmHg 31%
    01:00 +24°C° 0 mm 7 mps 760 mmHg 31%
    02:00 +24°C° 0 mm 7 mps 760 mmHg 31%
    03:00 +23°C° 0 mm 7 mps 760 mmHg 31%
    04:00 +23°C° 0 mm 7 mps 760 mmHg 31%
    05:00 +23°C° 0 mm 7 mps 760 mmHg 31%
    06:00 +23°C° 0 mm 7 mps 760 mmHg 31%
    07:00 +24°C° 0 mm 7 mps 761 mmHg 31%
    08:00 +26°C° 0 mm 8 mps 761 mmHg 31%
    09:00 +26°C° 0 mm 8 mps 761 mmHg 31%
    10:00 +28°C° 0 mm 8 mps 761 mmHg 30%
    11:00 +30°C° 0 mm 7 mps 760 mmHg 29%
    12:00 +32°C° 0 mm 7 mps 760 mmHg 28%
    13:00 +33°C° 0 mm 6 mps 759 mmHg 30%
    14:00 +34°C° 0 mm 5 mps 758 mmHg 31%
    15:00 +34°C° 0 mm 5 mps 758 mmHg 32%
    16:00 +33°C° 0 mm 4 mps 758 mmHg 37%
    17:00 +32°C° 0 mm 4 mps 758 mmHg 41%
    18:00 +29°C° 0 mm 3 mps 758 mmHg 46%
    19:00 +29°C° 0 mm 4 mps 759 mmHg 45%
    20:00 +28°C° 0 mm 5 mps 760 mmHg 44%
    21:00 +27°C° 0 mm 6 mps 760 mmHg 43%
    22:00 +27°C° 0 mm 6 mps 760 mmHg 45%
    23:00 +27°C° 0 mm 6 mps 760 mmHg 48%

    2 June, Friday

    Time Temperature Precipitation Wind Pressure Humidity
    00:00 +27°C° 0 mm 7 mps 760 mmHg 50%
    01:00 +27°C° 0 mm 7 mps 760 mmHg 54%
    02:00 +26°C° 0 mm 7 mps 760 mmHg 58%
    03:00 +26°C° 0 mm 7 mps 759 mmHg 61%
    04:00 +26°C° 0 mm 7 mps 759 mmHg 62%
    05:00 +26°C° 0 mm 7 mps 760 mmHg 63%
    06:00 +26°C° 0 mm 7 mps 760 mmHg 63%
    07:00 +27°C° 0 mm 7 mps 760 mmHg 60%
    08:00 +28°C° 0 mm 8 mps 761 mmHg 56%
    09:00 +28°C° 0 mm 8 mps 761 mmHg 53%
    10:00 +31°C° 0 mm 8 mps 761 mmHg 48%
    11:00 +32°C° 0 mm 7 mps 760 mmHg 44%
    12:00 +34°C° 0 mm 7 mps 760 mmHg 40%
    13:00 +34°C° 0 mm 6 mps 759 mmHg 39%
    14:00 +35°C° 0 mm 6 mps 759 mmHg 38%
    15:00 +35°C° 0 mm 5 mps 758 mmHg 38%
    16:00 +34°C° 0 mm 5 mps 758 mmHg 41%
    17:00 +32°C° 0 mm 4 mps 759 mmHg 44%
    18:00 +30°C° 0 mm 4 mps 759 mmHg 48%
    19:00 +29°C° 0 mm 4 mps 760 mmHg 48%
    20:00 +29°C° 0 mm 5 mps 760 mmHg 48%
    21:00 +28°C° 0 mm 6 mps 761 mmHg 48%
    22:00 +28°C° 0 mm 6 mps 761 mmHg 50%
    23:00 +27°C° 0 mm 7 mps 761 mmHg 53%

    3 June, Saturday

    Time Temperature Precipitation Wind Pressure Humidity
    00:00 +27°C° 0 mm 7 mps 761 mmHg 56%
    01:00 +27°C° 0 mm 7 mps 760 mmHg 58%
    02:00 +27°C° 0 mm 7 mps 760 mmHg 61%
    03:00 +26°C° 0 mm 7 mps 759 mmHg 64%
    04:00 +26°C° 0 mm 7 mps 759 mmHg 65%
    05:00 +26°C° 0 mm 7 mps 760 mmHg 66%
    06:00 +26°C° 0 mm 7 mps 760 mmHg 66%
    07:00 +27°C° 0 mm 7 mps 760 mmHg 64%
    08:00 +28°C° 0 mm 7 mps 761 mmHg 63%
    09:00 +28°C° 0 mm 8 mps 761 mmHg 61%
    10:00 +30°C° 0 mm 7 mps 761 mmHg 56%
    11:00 +32°C° 0 mm 7 mps 760 mmHg 51%
    12:00 +34°C° 0 mm 6 mps 760 mmHg 46%
    13:00 +34°C° 0 mm 6 mps 759 mmHg 44%
    14:00 +35°C° 0 mm 5 mps 759 mmHg 42%
    15:00 +35°C° 0 mm 5 mps 758 mmHg 40%
    16:00 +34°C° 0 mm 4 mps 758 mmHg 44%
    17:00 +32°C° 0 mm 4 mps 758 mmHg 48%
    18:00 +30°C° 0 mm 3 mps 759 mmHg 52%
    19:00 +29°C° 0 mm 3 mps 759 mmHg 53%
    20:00 +29°C° 0 mm 4 mps 760 mmHg 53%
    21:00 +28°C° 0 mm 4 mps 760 mmHg 54%
    22:00 +28°C° 0 mm 5 mps 760 mmHg 57%
    23:00 +28°C° 0 mm 6 mps 760 mmHg 60%

    4 June, Sunday

    Time Temperature Precipitation Wind Pressure Humidity
    00:00 +28°C° 0 mm 7 mps 760 mmHg 63%
    01:00 +27°C° 0 mm 7 mps 760 mmHg 67%
    02:00 +27°C° 0 mm 7 mps 759 mmHg 71%
    03:00 +26°C° 0 mm 6 mps 759 mmHg 75%
    04:00 +26°C° 0 mm 6 mps 759 mmHg 75%
    05:00 +26°C° 0 mm 6 mps 759 mmHg 75%
    06:00 +24°C° 0 mm 6 mps 759 mmHg 76%
    07:00 +26°C° 0 mm 7 mps 760 mmHg 71%
    08:00 +27°C° 0 mm 7 mps 760 mmHg 66%
    09:00 +28°C° 0 mm 7 mps 760 mmHg 61%
    10:00 +30°C° 0 mm 7 mps 760 mmHg 56%
    11:00 +32°C° 0 mm 6 mps 759 mmHg 50%
    12:00 +34°C° 0 mm 6 mps 759 mmHg 44%
    13:00 +34°C° 0 mm 5 mps 758 mmHg 43%
    14:00 +35°C° 0 mm 5 mps 758 mmHg 41%
    15:00 +35°C° 0 mm 4 mps 757 mmHg 40%
    16:00 +34°C° 0 mm 3 mps 757 mmHg 45%
    17:00 +31°C° 0 mm 3 mps 758 mmHg 51%
    18:00 +30°C° 0 mm 2 mps 758 mmHg 56%
    19:00 +29°C° 0 mm 2 mps 759 mmHg 56%
    20:00 +29°C° 0 mm 2 mps 759 mmHg 57%
    21:00 +28°C° 0 mm 2 mps 760 mmHg 57%
    22:00 +28°C° 0 mm 3 mps 759 mmHg 57%
    23:00 +28°C° 0 mm 4 mps 759 mmHg 56%
    Show more